Preview of NWS' New Version of Forecast
This preview is not operational and should not be used for support decisions.

Regional Weather Roundup (RWR)

Issued by Gray - Portland, ME (GYX)

                            
114 
ASUS41 KGYX 171905
RWRGYX
WEATHER ROUNDUP FOR MAINE AND NEW HAMPSHIRE
NATIONAL WEATHER SERVICE GRAY ME
200 PM EST SAT FEB 17 2018

MEZ002-005-006-010-012-015-018-020-021-024-026-027-029-172000-
MAINE
  
CITY           SKY/WX    TMP DP  RH WIND       PRES   REMARKS
PORTLAND       FAIR      28  12  51 SE15G22   30.33F WCI  16          
SANFORD        FAIR      31  13  47 S13       30.32F                  
BAR HARBOR     FAIR      27   6  41 N7        30.34F                  
WISCASSET      FAIR      30   4  33 SW6       30.34F                  
ROCKLAND       FAIR      27  10  49 SE8       30.33F                  
FRYEBURG       FAIR      34   1  24 S7        30.26F                  
LEWISTONAUBURN FAIR      30   6  36 SW9       30.29F                  
AUGUSTA        FAIR      28   2  32 VRB3      30.30F                  
WATERVILLE     FAIR      29   4  34 VRB3      30.26F                  
BANGOR         PTSUNNY   25   1  35 CALM      30.32F                  
GREENVILLE       N/A     23  -2  33 VRB6      30.16F                  
MILLINOCKET    FAIR      24  -1  33 CALM      30.29F                  
HOULTON        FAIR      23  -3  32 VRB5      30.25F                  
PRESQUE ISLE   FAIR      21   0  39 VRB5      30.25F                  
FRENCHVILLE    FAIR      15  -2  46 S6        30.20F                  
CARIBOU        FAIR      20  -2  38 SW7       30.23F                  
$$

NHZ002-005-008-009-011-012-014-172000-
NEW HAMPSHIRE
  
CITY           SKY/WX    TMP DP  RH WIND       PRES   REMARKS
PORTSMOUTH     PTSUNNY   31  13  48 SE12      30.32F                  
ROCHESTER      FAIR      32  12  43 S10       30.30F                  
NASHUA         FAIR      36   7  29 VRB5      30.30F                  
MANCHESTER     PTSUNNY   35   2  24 S9        30.29F                  
CONCORD        FAIR      33  10  38 SE9       30.28F                  
LACONIA        FAIR      30   7  37 N5        30.28F                  
PLYMOUTH       FAIR      34   4  28 S6        30.26S                  
BERLIN         FAIR      30   1  29 CALM      30.18F                  
WHITEFIELD     FAIR      31   2  29 NW7       30.18F                  
JAFFREY        FAIR      35   9  33 S8        30.22F                  
KEENE          FAIR      37   7  28 S9        30.25F                  
LEBANON        FAIR      34   7  32 SW12      30.24F                  
MT WASHINGTON  PTSUNNY    9 -11  40 W25         N/A  WCI -13          
$$

VTZ005-007-008-172000-
VERMONT
  
CITY           SKY/WX    TMP DP  RH WIND       PRES   REMARKS
ST JOHNSBURY     N/A     29   5  36 MISG      30.21F                  
MONTPELIER     FAIR      29   6  38 S9        30.22F                  
BURLINGTON     PTSUNNY   32   9  38 S12       30.22F                  
$$

MAZ007-012-024-CTZ003-RIZ002-NYZ038-NYZ072-172000-
SOUTHERN NEW ENGLAND AND NY
  
CITY           SKY/WX    TMP DP  RH WIND       PRES   REMARKS
BOSTON         PTSUNNY   32  16  51 E13       30.33F                  
WORCESTER      FAIR      34   9  35 VRB5      30.25F                  
NANTUCKET      FAIR      38  26  62 E7        30.34F                  
PROVIDENCE     PTSUNNY   37  17  44 S10       30.35F                  
HARTFORD       PTSUNNY   38  11  32 S8        30.29F                  
ALBANY         CLOUDY    34  14  43 S7        30.26F                  
NEW YORK CITY  PTSUNNY   38  20  48 SE14      30.32F                  
$$

ANZ081-ANZ082-ANZ150-NHZ014-MEZ023>029-172000-
COASTAL MARINE OBSERVATIONS
  
STATION/POSITION TIME  TEMP    WIND        PRES    WAVE
                       AIR SEA DIR/SP/G            HT/PER
                 (UTC) (F)     (DEG/KT/KT) (MB)    (FT/S)
MOUNT DESERT ROC 1900   26      30/  2/  4 1028.1F
MATINICUS ROCK   1800   27     310/  2/  3 1028.0F
ISLE OF SHOALS   1800   29     140/  8/ 10 1028.1F
JEFFREYS LEDGE   1836      42                N/A     2/10
GEORGES BANK BUO 1750   32 42              1018.4   17/ 9
$$

.............KEY..............
   WCI - WIND CHILL
   TC  - TEMPERATURE IN CELSIUS
   VSB - VISIBILITY IN MILES
   HX  - HEAT INDEX
   FAIR- INDICATES FEW OR NO CLOUDS BELOW 12,000 FT, WITH NO 
         SIGNIFICANT WEATHER AND/OR OBSTRUCTIONS TO VISIBILITY.